Lancaster, CA

5:10 PM PDT on May 27, 2018 (GMT -0700)
Gen Fox

Weather History for KWJF - February, 2014

Change the Weather History Date:

Thursday, February 20, 2014

  Actual Average Record
Temperature  
Mean Temperature 52 °F 49 °F  
Max Temperature 68 °F 63 °F 79 °F (1977)
Min Temperature 36 °F 36 °F 14 °F (1953)
Degree Days  
Heating Degree Days 13    
Month to date heating degree days 249  
Since 1 July heating degree days 2146  
Cooling Degree Days 0    
Month to date cooling degree days 6  
Year to date cooling degree days 6  
Growing Degree Days 2 (Base 50)    
Moisture  
Dew Point 25 °F    
Average Humidity 48    
Maximum Humidity 82    
Minimum Humidity 14    
Precipitation  
Precipitation 0.00 in 0.07 in 0.57 in (1994)
Month to date precipitation 0.06 1.30  
Year to date precipitation 0.11 2.80  
Since 1 July precipitation 1.72  
Snow  
Snow 0.00 in - T in (1994)
Month to date snowfall 0.0  
Since 1 July snowfall 0.0  
Snow Depth 0.00 in    
Sea Level Pressure  
Sea Level Pressure 30.13 in    
Wind  
Wind Speed 6 mph (NNW)    
Max Wind Speed 22 mph    
Max Gust Speed 28 mph    
Visibility 10 miles    
Events      
T = Trace of Precipitation, MM = Missing Value Source: NWS Daily Summary

Daily Weather History Graph

Daily Weather History Graph

Search for Another Location

Airport or City:

Astronomy

Feb. 20, 2014 Rise Set
Actual Time 6:32 AM PST 5:40 PM PST
Civil Twilight 6:07 AM PST 6:06 PM PST
Nautical Twilight 5:37 AM PST 6:35 PM PST
Astronomical Twilight 5:08 AM PST 7:05 PM PST
Moon 11:24 PM PST (2/20) 9:33 AM PST (2/20)
Length of Visible Light 11h 59m
Length of Day
11h 07m
Waning Gibbous, 70% of the Moon is Illuminated
Feb 20
Waning Gibbous
Feb 22
Last Quarter
Mar 1
New
Mar 8
First Quarter
Mar 16
Full

Hourly Weather History & Observations

Time (PST) Temp. Windchill Dew Point Humidity Pressure Visibility Wind Dir Wind Speed Gust Speed Precip Events Conditions
12:56 AM 51.1 °F - 37.9 °F 61% 30.06 in 10.0 mi West 18.4 mph - N/A   Clear
1:56 AM 48.0 °F - 37.9 °F 68% 30.09 in 10.0 mi WSW 17.3 mph 20.7 mph N/A   Clear
2:56 AM 46.9 °F - 37.0 °F 68% 30.09 in 10.0 mi WNW 9.2 mph - N/A   Clear
3:56 AM 44.1 °F - 36.0 °F 73% 30.11 in 10.0 mi Calm Calm - N/A   Clear
4:56 AM 41.0 °F 38.0 °F 34.0 °F 76% 30.12 in 10.0 mi NW 4.6 mph - N/A   Clear
5:56 AM 37.9 °F - 32.0 °F 79% 30.15 in 10.0 mi Calm Calm - N/A   Clear
6:56 AM 37.0 °F - 30.9 °F 79% 30.17 in 10.0 mi Calm Calm - N/A   Clear
7:56 AM 41.0 °F 39.0 °F 33.1 °F 73% 30.20 in 10.0 mi West 3.5 mph - N/A   Clear
8:56 AM 46.0 °F - 36.0 °F 68% 30.22 in 10.0 mi Calm Calm - N/A   Clear
9:56 AM 50.0 °F - 37.0 °F 61% 30.22 in 10.0 mi Calm Calm - N/A   Clear
10:56 AM 59.0 °F - 30.0 °F 33% 30.19 in 10.0 mi ENE 10.4 mph - N/A   Clear
11:56 AM 63.0 °F - 23.0 °F 22% 30.17 in 10.0 mi NE 11.5 mph - N/A   Clear
12:56 PM 64.0 °F - 19.9 °F 18% 30.13 in 10.0 mi ENE 11.5 mph - N/A   Clear
1:56 PM 66.0 °F - 18.0 °F 16% 30.11 in 10.0 mi NE 11.5 mph - N/A   Clear
2:56 PM 66.9 °F - 17.1 °F 15% 30.09 in 10.0 mi ENE 10.4 mph - N/A   Clear
3:56 PM 66.9 °F - 16.0 °F 14% 30.09 in 10.0 mi Calm Calm - N/A   Clear
4:56 PM 64.9 °F - 16.0 °F 15% 30.08 in 10.0 mi ENE 5.8 mph - N/A   Clear
5:56 PM 57.9 °F - 17.1 °F 20% 30.10 in 10.0 mi NE 3.5 mph - N/A   Clear
6:56 PM 52.0 °F - 15.1 °F 23% 30.12 in 10.0 mi NNW 3.5 mph - N/A   Clear
7:56 PM 46.0 °F 41.9 °F 16.0 °F 30% 30.12 in 10.0 mi WNW 8.1 mph - N/A   Clear
8:56 PM 43.0 °F 41.3 °F 15.1 °F 32% 30.12 in 10.0 mi WNW 3.5 mph - N/A   Clear
9:56 PM 43.0 °F 38.8 °F 15.1 °F 32% 30.12 in 10.0 mi WSW 6.9 mph - N/A   Clear
10:56 PM 39.9 °F 35.1 °F 15.1 °F 36% 30.10 in 10.0 mi West 6.9 mph - N/A   Clear
11:56 PM 39.0 °F - 15.1 °F 38% 30.09 in 10.0 mi Calm Calm - N/A   Clear